Time,TemperatureF,DewpointF,PressureIn,WindDirection,WindDirectionDegrees,WindSpeedMPH,WindSpeedGustMPH,Humidity,HourlyPrecipIn,Conditions,Clouds,dailyrainin,SolarRadiationWatts/m^2,SoftwareType,DateUTC
2013-05-14 00:01:00,57.6,38.0,30.03,South,190,6.9,6.9,48,0.00,CLR,,0.00,0.0,WeatherDisplay:10.37,2013-05-14 05:01:00,
2013-05-14 00:06:00,57.6,38.0,30.03,South,181,6.9,6.9,48,0.00,CLR,,0.00,0.0,WeatherDisplay:10.37,2013-05-14 05:06:00,
2013-05-14 00:11:00,57.6,37.5,30.03,South,191,6.9,6.9,47,0.00,CLR,,0.00,0.0,WeatherDisplay:10.37,2013-05-14 05:11:00,
2013-05-14 00:16:00,57.7,37.6,30.03,South,187,8.1,8.1,47,0.00,CLR,,0.00,0.0,WeatherDisplay:10.37,2013-05-14 05:16:00,
2013-05-14 00:21:00,57.7,38.1,30.02,South,188,8.1,8.1,48,0.00,CLR,,0.00,0.0,WeatherDisplay:10.37,2013-05-14 05:21:00,
2013-05-14 00:26:00,57.5,38.5,30.02,South,179,8.0,8.0,49,0.00,CLR,,0.00,0.0,WeatherDisplay:10.37,2013-05-14 05:26:00,
2013-05-14 00:31:00,57.5,39.0,30.02,South,182,8.1,8.1,50,0.00,CLR,,0.00,0.0,WeatherDisplay:10.37,2013-05-14 05:31:00,
2013-05-14 00:36:00,57.4,38.4,30.02,South,188,9.2,9.2,49,0.00,CLR,,0.00,0.0,WeatherDisplay:10.37,2013-05-14 05:36:00,
2013-05-14 00:41:00,57.6,38.6,30.01,South,178,9.2,9.2,49,0.00,CLR,,0.00,0.0,WeatherDisplay:10.37,2013-05-14 05:41:00,
2013-05-14 00:46:00,57.7,38.1,30.01,South,191,10.4,10.4,48,0.00,BKN,,0.00,0.0,WeatherDisplay:10.37,2013-05-14 05:46:00,
2013-05-14 00:51:00,57.9,38.3,30.01,South,171,10.4,10.4,48,0.00,BKN,,0.00,0.0,WeatherDisplay:10.37,2013-05-14 05:51:00,
2013-05-14 00:56:00,58.0,37.9,30.00,SSW,192,12.7,12.7,47,0.00,BKN,,0.00,0.0,WeatherDisplay:10.37,2013-05-14 05:56:00,
2013-05-14 01:01:00,57.9,37.8,30.00,South,185,11.5,11.5,47,0.00,OVC,,0.00,0.0,WeatherDisplay:10.37,2013-05-14 06:01:00,
2013-05-14 01:06:00,57.7,38.1,30.00,SSW,197,11.5,11.5,48,0.00,OVC,,0.00,0.0,WeatherDisplay:10.37,2013-05-14 06:06:00,
2013-05-14 01:11:00,57.4,38.4,29.99,South,186,11.5,11.5,49,0.00,OVC,,0.00,0.0,WeatherDisplay:10.37,2013-05-14 06:11:00,
2013-05-14 01:16:00,57.2,38.2,29.99,SSW,196,11.5,11.5,49,0.00,OVC,,0.00,0.0,WeatherDisplay:10.37,2013-05-14 06:16:00,
2013-05-14 01:21:00,57.0,38.5,29.99,South,176,11.5,11.5,50,0.00,OVC,,0.00,0.0,WeatherDisplay:10.37,2013-05-14 06:21:00,
2013-05-14 01:26:00,56.8,38.3,29.99,South,180,15.0,15.0,50,0.00,OVC,,0.00,0.0,WeatherDisplay:10.37,2013-05-14 06:26:00,
2013-05-14 01:31:00,56.8,38.9,29.98,SSW,201,12.7,12.7,51,0.00,SCT,,0.00,0.0,WeatherDisplay:10.37,2013-05-14 06:31:00,
2013-05-14 01:36:00,56.6,38.7,29.98,South,170,11.5,11.5,51,0.00,SCT,,0.00,0.0,WeatherDisplay:10.37,2013-05-14 06:36:00,
2013-05-14 01:41:00,56.5,38.6,29.98,South,173,12.7,12.7,51,0.00,SCT,,0.00,0.0,WeatherDisplay:10.37,2013-05-14 06:41:00,
2013-05-14 01:46:00,56.4,39.0,29.98,South,178,10.4,10.4,52,0.00,CLR,,0.00,0.0,WeatherDisplay:10.37,2013-05-14 06:46:00,
2013-05-14 01:51:00,56.3,38.9,29.98,South,180,11.5,11.5,52,0.00,CLR,,0.00,0.0,WeatherDisplay:10.37,2013-05-14 06:51:00,
2013-05-14 01:56:00,56.4,38.5,29.97,South,182,11.5,11.5,51,0.00,CLR,,0.00,0.0,WeatherDisplay:10.37,2013-05-14 06:56:00,
2013-05-14 02:01:00,56.4,39.0,29.97,South,174,12.0,12.0,52,0.00,CLR,,0.00,0.0,WeatherDisplay:10.37,2013-05-14 07:01:00,
2013-05-14 02:06:00,56.4,39.0,29.97,SSW,207,13.8,13.8,52,0.00,CLR,,0.00,0.0,WeatherDisplay:10.37,2013-05-14 07:06:00,
2013-05-14 02:11:00,56.3,38.9,29.97,SSW,198,12.7,12.7,52,0.00,CLR,,0.00,0.0,WeatherDisplay:10.37,2013-05-14 07:11:00,
2013-05-14 02:16:00,56.2,38.8,29.97,South,173,11.5,11.5,52,0.00,CLR,,0.00,0.0,WeatherDisplay:10.37,2013-05-14 07:16:00,
2013-05-14 02:21:00,56.1,38.7,29.96,South,177,11.0,11.0,52,0.00,CLR,,0.00,0.0,WeatherDisplay:10.37,2013-05-14 07:21:00,
2013-05-14 02:26:00,56.1,38.7,29.96,SSW,198,11.5,11.5,52,0.00,CLR,,0.00,0.0,WeatherDisplay:10.37,2013-05-14 07:26:00,
2013-05-14 02:32:00,56.0,38.6,29.96,SSE,163,11.5,11.5,52,0.00,CLR,,0.00,0.0,WeatherDisplay:10.37,2013-05-14 07:32:00,
2013-05-14 02:37:00,55.9,39.0,29.95,South,186,11.5,11.5,53,0.00,CLR,,0.00,0.0,WeatherDisplay:10.37,2013-05-14 07:37:00,
2013-05-14 02:42:00,55.8,38.9,29.95,South,189,10.4,10.4,53,0.00,CLR,,0.00,0.0,WeatherDisplay:10.37,2013-05-14 07:42:00,
2013-05-14 02:47:00,55.8,38.9,29.95,SSW,193,12.7,12.7,53,0.00,CLR,,0.00,0.0,WeatherDisplay:10.37,2013-05-14 07:47:00,
2013-05-14 02:52:00,55.8,38.4,29.95,South,180,13.8,13.8,52,0.00,CLR,,0.00,0.0,WeatherDisplay:10.37,2013-05-14 07:52:00,
2013-05-14 02:57:00,55.7,38.3,29.95,SSW,192,9.2,9.2,52,0.00,CLR,,0.00,0.0,WeatherDisplay:10.37,2013-05-14 07:57:00,
2013-05-14 03:02:00,55.7,38.3,29.94,South,186,15.0,15.0,52,0.00,CLR,,0.00,0.0,WeatherDisplay:10.37,2013-05-14 08:02:00,
2013-05-14 03:07:00,55.7,38.3,29.94,South,175,11.5,11.5,52,0.00,CLR,,0.00,0.0,WeatherDisplay:10.37,2013-05-14 08:07:00,
2013-05-14 03:12:00,55.7,38.3,29.94,South,185,11.5,11.5,52,0.00,CLR,,0.00,0.0,WeatherDisplay:10.37,2013-05-14 08:12:00,
2013-05-14 03:17:00,55.5,38.1,29.94,South,175,12.7,12.7,52,0.00,CLR,,0.00,0.0,WeatherDisplay:10.37,2013-05-14 08:17:00,
2013-05-14 03:22:00,55.4,38.1,29.94,South,188,13.0,13.0,52,0.00,CLR,,0.00,0.0,WeatherDisplay:10.37,2013-05-14 08:22:00,
2013-05-14 03:27:00,55.5,38.1,29.94,South,180,16.1,16.1,52,0.00,CLR,,0.00,0.0,WeatherDisplay:10.37,2013-05-14 08:27:00,
2013-05-14 03:32:00,55.4,38.1,29.94,South,175,12.7,12.7,52,0.00,CLR,,0.00,0.0,WeatherDisplay:10.37,2013-05-14 08:32:00,
2013-05-14 03:37:00,55.1,37.8,29.94,South,190,15.0,15.0,52,0.00,CLR,,0.00,0.0,WeatherDisplay:10.37,2013-05-14 08:37:00,
2013-05-14 03:42:00,55.0,38.2,29.93,South,190,15.0,15.0,53,0.00,CLR,,0.00,0.0,WeatherDisplay:10.37,2013-05-14 08:42:00,
2013-05-14 03:47:00,54.9,38.1,29.93,South,182,10.4,10.4,53,0.00,CLR,,0.00,0.0,WeatherDisplay:10.37,2013-05-14 08:47:00,
2013-05-14 03:52:00,54.7,38.4,29.93,South,182,13.8,13.8,54,0.00,CLR,,0.00,0.0,WeatherDisplay:10.37,2013-05-14 08:52:00,
2013-05-14 03:57:00,54.7,38.4,29.93,South,170,11.5,11.5,54,0.00,CLR,,0.00,0.0,WeatherDisplay:10.37,2013-05-14 08:57:00,
2013-05-14 04:02:00,54.7,38.4,29.92,SSE,155,16.1,16.1,54,0.00,CLR,,0.00,0.0,WeatherDisplay:10.37,2013-05-14 09:02:00,
2013-05-14 04:07:00,54.7,38.4,29.92,South,172,15.0,15.0,54,0.00,CLR,,0.00,0.0,WeatherDisplay:10.37,2013-05-14 09:07:00,
2013-05-14 04:12:00,54.9,38.6,29.92,South,185,13.8,13.8,54,0.00,CLR,,0.00,0.0,WeatherDisplay:10.37,2013-05-14 09:12:00,
2013-05-14 04:17:00,54.9,38.6,29.92,South,190,12.7,12.7,54,0.00,CLR,,0.00,0.0,WeatherDisplay:10.37,2013-05-14 09:17:00,
2013-05-14 04:22:00,55.1,38.3,29.92,South,173,17.3,17.3,53,0.00,CLR,,0.00,0.0,WeatherDisplay:10.37,2013-05-14 09:22:00,
2013-05-14 04:27:00,55.2,38.4,29.91,SSW,211,15.0,15.0,53,0.00,CLR,,0.00,0.0,WeatherDisplay:10.37,2013-05-14 09:27:00,
2013-05-14 04:32:00,55.3,38.4,29.91,South,181,19.0,19.0,53,0.00,SCT,,0.00,0.0,WeatherDisplay:10.37,2013-05-14 09:32:00,
2013-05-14 04:37:00,55.4,38.1,29.91,SSW,192,17.3,17.3,52,0.00,SCT,,0.00,0.0,WeatherDisplay:10.37,2013-05-14 09:37:00,
2013-05-14 04:42:00,55.4,38.1,29.90,South,190,21.9,21.9,52,0.00,SCT,,0.00,0.0,WeatherDisplay:10.37,2013-05-14 09:42:00,
2013-05-14 04:47:00,55.3,38.0,29.90,South,183,16.1,16.1,52,0.00,SCT,,0.00,0.0,WeatherDisplay:10.37,2013-05-14 09:47:00,
2013-05-14 04:52:00,55.1,38.3,29.90,South,182,17.3,17.3,53,0.00,SCT,,0.00,0.0,WeatherDisplay:10.37,2013-05-14 09:52:00,
2013-05-14 04:57:00,55.1,38.3,29.90,South,184,21.9,21.9,53,0.00,SCT,,0.00,0.0,WeatherDisplay:10.37,2013-05-14 09:57:00,
2013-05-14 05:02:00,55.1,38.3,29.90,SSW,206,18.4,18.4,53,0.00,SCT,,0.00,0.0,WeatherDisplay:10.37,2013-05-14 10:02:00,
2013-05-14 05:07:00,55.1,38.3,29.90,South,182,16.1,16.1,53,0.00,SCT,,0.00,0.0,WeatherDisplay:10.37,2013-05-14 10:07:00,
2013-05-14 05:12:00,55.1,38.3,29.89,SSW,198,18.4,18.4,53,0.00,SCT,,0.00,0.0,WeatherDisplay:10.37,2013-05-14 10:12:00,
2013-05-14 05:17:00,55.0,38.2,29.89,South,177,14.0,14.0,53,0.00,SCT,,0.00,0.0,WeatherDisplay:10.37,2013-05-14 10:17:00,
2013-05-14 05:22:00,55.0,38.6,29.89,South,180,17.0,17.0,54,0.00,SCT,,0.00,0.0,WeatherDisplay:10.37,2013-05-14 10:22:00,
2013-05-14 05:27:00,55.1,38.7,29.89,South,180,15.0,15.0,54,0.00,SCT,,0.00,0.0,WeatherDisplay:10.37,2013-05-14 10:27:00,
2013-05-14 05:32:00,55.1,38.7,29.89,SSW,194,17.3,17.3,54,0.00,CLR,,0.00,0.0,WeatherDisplay:10.37,2013-05-14 10:32:00,
2013-05-14 05:37:00,55.2,39.3,29.89,South,182,12.7,12.7,55,0.00,CLR,,0.00,0.0,WeatherDisplay:10.37,2013-05-14 10:37:00,
2013-05-14 05:42:00,55.2,39.3,29.89,SSW,204,16.1,16.1,55,0.00,CLR,,0.00,5.0,WeatherDisplay:10.37,2013-05-14 10:42:00,
2013-05-14 05:47:00,55.2,39.8,29.89,South,180,12.7,12.7,56,0.00,CLR,,0.00,9.0,WeatherDisplay:10.37,2013-05-14 10:47:00,
2013-05-14 05:52:00,55.2,39.8,29.88,SSW,202,18.4,18.4,56,0.00,CLR,,0.00,12.0,WeatherDisplay:10.37,2013-05-14 10:52:00,
2013-05-14 05:57:00,55.2,39.8,29.88,SSE,167,18.4,18.4,56,0.00,CLR,,0.00,14.0,WeatherDisplay:10.37,2013-05-14 10:57:00,
2013-05-14 06:02:00,55.1,40.1,29.88,South,186,15.0,15.0,57,0.00,CLR,,0.00,18.0,WeatherDisplay:10.37,2013-05-14 11:02:00,
2013-05-14 06:07:00,55.1,40.1,29.88,SSW,195,17.3,17.3,57,0.00,CLR,,0.00,19.0,WeatherDisplay:10.37,2013-05-14 11:07:00,
2013-05-14 06:12:00,55.2,40.2,29.88,South,182,17.3,17.3,57,0.00,CLR,,0.00,21.0,WeatherDisplay:10.37,2013-05-14 11:12:00,
2013-05-14 06:17:00,55.2,40.7,29.88,SSW,194,18.4,18.4,58,0.00,CLR,,0.00,25.0,WeatherDisplay:10.37,2013-05-14 11:17:00,
2013-05-14 06:22:00,55.3,40.8,29.88,South,176,13.8,13.8,58,0.00,CLR,,0.00,26.0,WeatherDisplay:10.37,2013-05-14 11:22:00,
2013-05-14 06:27:00,55.3,41.2,29.88,South,180,19.6,19.6,59,0.00,CLR,,0.00,28.0,WeatherDisplay:10.37,2013-05-14 11:27:00,
2013-05-14 06:32:00,55.4,41.3,29.87,South,182,16.1,16.1,59,0.00,CLR,,0.00,30.0,WeatherDisplay:10.37,2013-05-14 11:32:00,
2013-05-14 06:37:00,55.4,41.3,29.87,SSW,196,17.3,17.3,59,0.00,CLR,,0.00,32.0,WeatherDisplay:10.37,2013-05-14 11:37:00,
2013-05-14 06:42:00,55.7,41.6,29.86,SSW,207,17.0,17.0,59,0.00,CLR,,0.00,33.0,WeatherDisplay:10.37,2013-05-14 11:42:00,
2013-05-14 06:47:00,55.9,41.8,29.86,SSW,196,15.0,15.0,59,0.00,CLR,,0.00,33.0,WeatherDisplay:10.37,2013-05-14 11:47:00,
2013-05-14 06:53:00,56.2,42.1,29.86,SSW,213,16.1,16.1,59,0.00,CLR,,0.00,37.0,WeatherDisplay:10.37,2013-05-14 11:53:00,
2013-05-14 06:58:00,56.4,42.2,29.86,SSW,204,16.1,16.1,59,0.00,CLR,,0.00,37.0,WeatherDisplay:10.37,2013-05-14 11:58:00,
2013-05-14 07:03:00,56.7,42.5,29.85,South,187,16.1,16.1,59,0.00,CLR,,0.00,39.0,WeatherDisplay:10.37,2013-05-14 12:03:00,
2013-05-14 07:08:00,57.0,42.8,29.85,SSW,196,19.6,19.6,59,0.00,CLR,,0.00,40.0,WeatherDisplay:10.37,2013-05-14 12:08:00,
2013-05-14 07:13:00,57.3,43.1,29.85,South,177,20.7,20.7,59,0.00,CLR,,0.00,42.0,WeatherDisplay:10.37,2013-05-14 12:13:00,
2013-05-14 07:18:00,57.6,43.4,29.85,South,190,18.0,18.0,59,0.00,CLR,,0.00,44.0,WeatherDisplay:10.37,2013-05-14 12:18:00,
2013-05-14 07:23:00,57.9,44.1,29.85,SSW,206,16.1,16.1,60,0.00,CLR,,0.00,44.0,WeatherDisplay:10.37,2013-05-14 12:23:00,
2013-05-14 07:28:00,58.4,44.6,29.84,SSW,193,16.0,16.0,60,0.00,CLR,,0.00,46.0,WeatherDisplay:10.37,2013-05-14 12:28:00,
2013-05-14 07:33:00,58.9,44.6,29.84,South,169,18.0,18.0,59,0.00,CLR,,0.00,51.0,WeatherDisplay:10.37,2013-05-14 12:33:00,
2013-05-14 07:38:00,59.4,45.1,29.84,South,184,18.4,18.4,59,0.00,CLR,,0.00,76.0,WeatherDisplay:10.37,2013-05-14 12:38:00,
2013-05-14 07:43:00,59.9,45.5,29.84,South,188,19.6,19.6,59,0.00,CLR,,0.00,120.0,WeatherDisplay:10.37,2013-05-14 12:43:00,
2013-05-14 07:48:00,60.4,45.5,29.84,SW,232,18.4,18.4,58,0.00,CLR,,0.00,178.0,WeatherDisplay:10.37,2013-05-14 12:48:00,
2013-05-14 07:53:00,60.9,46.0,29.84,South,181,19.6,19.6,58,0.00,CLR,,0.00,236.0,WeatherDisplay:10.37,2013-05-14 12:53:00,
2013-05-14 07:58:00,61.4,46.5,29.84,SW,215,17.3,17.3,58,0.00,CLR,,0.00,301.0,WeatherDisplay:10.37,2013-05-14 12:58:00,
2013-05-14 08:03:00,61.7,46.3,29.83,SSE,163,19.6,19.6,57,0.00,CLR,,0.00,346.0,WeatherDisplay:10.37,2013-05-14 13:03:00,
2013-05-14 08:08:00,62.0,46.6,29.83,South,177,19.6,19.6,57,0.00,CLR,,0.00,373.0,WeatherDisplay:10.37,2013-05-14 13:08:00,
2013-05-14 08:13:00,62.5,47.1,29.83,SSW,200,18.0,18.0,57,0.00,CLR,,0.00,388.0,WeatherDisplay:10.37,2013-05-14 13:13:00,
2013-05-14 08:18:00,62.9,47.9,29.83,SSW,211,18.4,18.4,58,0.00,CLR,,0.00,408.0,WeatherDisplay:10.37,2013-05-14 13:18:00,
2013-05-14 08:23:00,63.4,47.9,29.82,SSW,202,16.1,16.1,57,0.00,CLR,,0.00,424.0,WeatherDisplay:10.37,2013-05-14 13:23:00,
2013-05-14 08:28:00,63.9,48.4,29.82,South,186,16.1,16.1,57,0.00,CLR,,0.00,436.0,WeatherDisplay:10.37,2013-05-14 13:28:00,
2013-05-14 08:33:00,64.4,48.4,29.82,SSW,196,16.1,16.1,56,0.00,CLR,,0.00,410.0,WeatherDisplay:10.37,2013-05-14 13:33:00,
2013-05-14 08:38:00,64.8,48.7,29.82,SSW,194,18.4,18.4,56,0.00,CLR,,0.00,506.0,WeatherDisplay:10.37,2013-05-14 13:38:00,
2013-05-14 08:43:00,65.2,49.1,29.82,South,190,17.3,17.3,56,0.00,CLR,,0.00,487.0,WeatherDisplay:10.37,2013-05-14 13:43:00,
2013-05-14 08:48:00,65.8,49.2,29.82,SW,217,19.6,19.6,55,0.00,CLR,,0.00,496.0,WeatherDisplay:10.37,2013-05-14 13:48:00,
2013-05-14 08:53:00,66.4,49.7,29.82,SSW,208,17.3,17.3,55,0.00,CLR,,0.00,510.0,WeatherDisplay:10.37,2013-05-14 13:53:00,
2013-05-14 08:58:00,66.5,49.3,29.82,SW,223,17.3,17.3,54,0.00,CLR,,0.00,526.0,WeatherDisplay:10.37,2013-05-14 13:58:00,
2013-05-14 09:03:00,66.8,50.1,29.82,SSW,207,11.5,11.5,55,0.00,CLR,,0.00,543.0,WeatherDisplay:10.37,2013-05-14 14:03:00,
2013-05-14 09:08:00,67.4,50.2,29.81,SSW,201,16.0,16.0,54,0.00,CLR,,0.00,555.0,WeatherDisplay:10.37,2013-05-14 14:08:00,
2013-05-14 09:13:00,67.4,50.2,29.81,SSW,210,15.0,15.0,54,0.00,CLR,,0.00,571.0,WeatherDisplay:10.37,2013-05-14 14:13:00,
2013-05-14 09:18:00,68.1,50.8,29.81,SSW,206,15.0,15.0,54,0.00,CLR,,0.00,584.0,WeatherDisplay:10.37,2013-05-14 14:18:00,
2013-05-14 09:23:00,68.4,51.6,29.81,SW,215,14.0,14.0,55,0.00,CLR,,0.00,598.0,WeatherDisplay:10.37,2013-05-14 14:23:00,
2013-05-14 09:28:00,68.6,50.8,29.81,South,175,18.4,18.4,53,0.00,CLR,,0.00,612.0,WeatherDisplay:10.37,2013-05-14 14:28:00,
2013-05-14 09:33:00,68.6,51.3,29.81,WSW,250,19.6,19.6,54,0.00,CLR,,0.00,628.0,WeatherDisplay:10.37,2013-05-14 14:33:00,
2013-05-14 09:38:00,69.0,51.2,29.80,SW,219,18.4,18.4,53,0.00,CLR,,0.00,642.0,WeatherDisplay:10.37,2013-05-14 14:38:00,
2013-05-14 09:43:00,69.7,52.3,29.80,WSW,242,12.7,12.7,54,0.00,CLR,,0.00,654.0,WeatherDisplay:10.37,2013-05-14 14:43:00,
2013-05-14 09:48:00,70.1,52.2,29.80,SW,229,16.1,16.1,53,0.00,CLR,,0.00,663.0,WeatherDisplay:10.37,2013-05-14 14:48:00,
2013-05-14 09:53:00,70.6,53.6,29.80,WSW,242,19.6,19.6,55,0.00,CLR,,0.00,675.0,WeatherDisplay:10.37,2013-05-14 14:53:00,
2013-05-14 09:58:00,71.1,53.1,29.80,SW,217,12.7,12.7,53,0.00,CLR,,0.00,686.0,WeatherDisplay:10.37,2013-05-14 14:58:00,
2013-05-14 10:03:00,71.7,53.7,29.80,SW,224,15.0,15.0,53,0.00,CLR,,0.00,698.0,WeatherDisplay:10.37,2013-05-14 15:03:00,
2013-05-14 10:08:00,72.0,54.4,29.80,WSW,237,16.1,16.1,54,0.00,CLR,,0.00,710.0,WeatherDisplay:10.37,2013-05-14 15:08:00,
2013-05-14 10:13:00,72.2,54.6,29.80,WSW,237,16.1,16.1,54,0.00,CLR,,0.00,719.0,WeatherDisplay:10.37,2013-05-14 15:13:00,
2013-05-14 10:18:00,72.7,54.6,29.79,SSW,196,18.4,18.4,53,0.00,CLR,,0.00,733.0,WeatherDisplay:10.37,2013-05-14 15:18:00,
2013-05-14 10:23:00,72.9,54.2,29.79,WSW,246,15.0,15.0,52,0.00,CLR,,0.00,742.0,WeatherDisplay:10.37,2013-05-14 15:23:00,
2013-05-14 10:28:00,73.3,54.6,29.79,SW,217,16.1,16.1,52,0.00,CLR,,0.00,752.0,WeatherDisplay:10.37,2013-05-14 15:28:00,
2013-05-14 10:33:00,73.6,54.9,29.78,SW,222,13.8,13.8,52,0.00,CLR,,0.00,765.0,WeatherDisplay:10.37,2013-05-14 15:33:00,
2013-05-14 10:38:00,74.0,54.7,29.78,SW,234,18.4,18.4,51,0.00,CLR,,0.00,777.0,WeatherDisplay:10.37,2013-05-14 15:38:00,
2013-05-14 10:43:00,74.4,55.1,29.78,WSW,244,17.3,17.3,51,0.00,CLR,,0.00,786.0,WeatherDisplay:10.37,2013-05-14 15:43:00,
2013-05-14 10:48:00,75.0,55.6,29.78,SSW,205,17.3,17.3,51,0.00,CLR,,0.00,796.0,WeatherDisplay:10.37,2013-05-14 15:48:00,
2013-05-14 10:53:00,75.3,55.9,29.78,SSW,213,18.4,18.4,51,0.00,CLR,,0.00,805.0,WeatherDisplay:10.37,2013-05-14 15:53:00,
2013-05-14 10:58:00,75.5,56.6,29.78,SW,234,15.0,15.0,52,0.00,CLR,,0.00,816.0,WeatherDisplay:10.37,2013-05-14 15:58:00,
2013-05-14 11:03:00,75.8,56.4,29.78,SW,230,16.0,16.0,51,0.00,CLR,,0.00,823.0,WeatherDisplay:10.37,2013-05-14 16:03:00,
2013-05-14 11:09:00,76.1,56.7,29.78,SW,236,13.0,13.0,51,0.00,CLR,,0.00,830.0,WeatherDisplay:10.37,2013-05-14 16:09:00,
2013-05-14 11:14:00,76.6,57.7,29.78,SW,234,12.7,12.7,52,0.00,CLR,,0.00,837.0,WeatherDisplay:10.37,2013-05-14 16:14:00,
2013-05-14 11:19:00,77.0,58.0,29.77,SW,230,16.1,16.1,52,0.00,CLR,,0.00,844.0,WeatherDisplay:10.37,2013-05-14 16:19:00,
2013-05-14 11:24:00,77.5,57.9,29.77,WSW,244,9.2,9.2,51,0.00,CLR,,0.00,849.0,WeatherDisplay:10.37,2013-05-14 16:24:00,
2013-05-14 11:29:00,78.0,57.3,29.77,SW,222,17.3,17.3,49,0.00,CLR,,0.00,860.0,WeatherDisplay:10.37,2013-05-14 16:29:00,
2013-05-14 11:34:00,77.8,56.5,29.77,WSW,242,14.0,14.0,48,0.00,CLR,,0.00,868.0,WeatherDisplay:10.37,2013-05-14 16:34:00,
2013-05-14 11:39:00,78.0,57.9,29.77,SW,216,16.1,16.1,50,0.00,CLR,,0.00,872.0,WeatherDisplay:10.37,2013-05-14 16:39:00,
2013-05-14 11:44:00,78.1,57.4,29.77,West,262,17.3,17.3,49,0.00,CLR,,0.00,877.0,WeatherDisplay:10.37,2013-05-14 16:44:00,
2013-05-14 11:49:00,78.4,58.2,29.76,WSW,238,16.1,16.1,50,0.00,CLR,,0.00,881.0,WeatherDisplay:10.37,2013-05-14 16:49:00,
2013-05-14 11:54:00,78.7,57.9,29.76,SW,231,14.0,14.0,49,0.00,CLR,,0.00,886.0,WeatherDisplay:10.37,2013-05-14 16:54:00,
2013-05-14 11:59:00,78.7,57.9,29.76,SSW,205,15.0,15.0,49,0.00,CLR,,0.00,891.0,WeatherDisplay:10.37,2013-05-14 16:59:00,
2013-05-14 12:04:00,79.3,59.0,29.76,WSW,237,13.0,13.0,50,0.00,CLR,,0.00,895.0,WeatherDisplay:10.37,2013-05-14 17:04:00,
2013-05-14 12:09:00,79.5,60.9,29.76,WSW,239,15.0,15.0,53,0.00,CLR,,0.00,900.0,WeatherDisplay:10.37,2013-05-14 17:09:00,
2013-05-14 12:14:00,79.8,58.4,29.76,SW,236,15.0,15.0,48,0.00,CLR,,0.00,904.0,WeatherDisplay:10.37,2013-05-14 17:14:00,
2013-05-14 12:19:00,79.8,58.4,29.76,SW,232,11.5,11.5,48,0.00,CLR,,0.00,904.0,WeatherDisplay:10.37,2013-05-14 17:19:00,
2013-05-14 12:24:00,80.4,58.9,29.76,West,277,11.5,11.5,48,0.00,CLR,,0.00,905.0,WeatherDisplay:10.37,2013-05-14 17:24:00,
2013-05-14 12:29:00,80.8,59.3,29.76,SW,227,16.1,16.1,48,0.00,CLR,,0.00,909.0,WeatherDisplay:10.37,2013-05-14 17:29:00,
2013-05-14 12:34:00,81.0,58.9,29.76,WSW,240,15.0,15.0,47,0.00,CLR,,0.00,907.0,WeatherDisplay:10.37,2013-05-14 17:34:00,
2013-05-14 12:39:00,81.2,57.8,29.76,WSW,257,16.1,16.1,45,0.00,CLR,,0.00,909.0,WeatherDisplay:10.37,2013-05-14 17:39:00,
2013-05-14 12:44:00,81.2,59.1,29.76,West,262,15.0,15.0,47,0.00,CLR,,0.00,911.0,WeatherDisplay:10.37,2013-05-14 17:44:00,
2013-05-14 12:49:00,81.3,58.5,29.76,SW,225,15.0,15.0,46,0.00,CLR,,0.00,912.0,WeatherDisplay:10.37,2013-05-14 17:49:00,
2013-05-14 12:54:00,81.8,60.2,29.76,SW,232,13.8,13.8,48,0.00,CLR,,0.00,911.0,WeatherDisplay:10.37,2013-05-14 17:54:00,
2013-05-14 12:59:00,82.3,60.1,29.75,SW,223,16.1,16.1,47,0.00,CLR,,0.00,912.0,WeatherDisplay:10.37,2013-05-14 17:59:00,
2013-05-14 13:04:00,82.4,58.3,29.75,SW,220,12.7,12.7,44,0.00,CLR,,0.00,912.0,WeatherDisplay:10.37,2013-05-14 18:04:00,
2013-05-14 13:09:00,82.7,59.2,29.75,WSW,237,15.0,15.0,45,0.00,CLR,,0.00,912.0,WeatherDisplay:10.37,2013-05-14 18:09:00,
2013-05-14 13:14:00,83.1,61.4,29.75,SW,236,12.7,12.7,48,0.00,CLR,,0.00,907.0,WeatherDisplay:10.37,2013-05-14 18:14:00,
2013-05-14 13:19:00,83.7,58.8,29.75,WSW,244,16.1,16.1,43,0.00,CLR,,0.00,911.0,WeatherDisplay:10.37,2013-05-14 18:19:00,
2013-05-14 13:24:00,83.9,58.3,29.74,WSW,249,11.5,11.5,42,0.00,CLR,,0.00,905.0,WeatherDisplay:10.37,2013-05-14 18:24:00,
2013-05-14 13:29:00,84.2,60.6,29.75,SW,232,11.5,11.5,45,0.00,CLR,,0.00,904.0,WeatherDisplay:10.37,2013-05-14 18:29:00,
2013-05-14 13:34:00,84.5,60.2,29.75,WSW,246,11.5,11.5,44,0.00,CLR,,0.00,900.0,WeatherDisplay:10.37,2013-05-14 18:34:00,
2013-05-14 13:39:00,84.7,59.7,29.75,West,268,16.1,16.1,43,0.00,CLR,,0.00,893.0,WeatherDisplay:10.37,2013-05-14 18:39:00,
2013-05-14 13:44:00,84.8,59.2,29.74,WSW,247,14.0,14.0,42,0.00,CLR,,0.00,889.0,WeatherDisplay:10.37,2013-05-14 18:44:00,
2013-05-14 13:49:00,85.2,58.8,29.74,SW,225,14.0,14.0,41,0.00,CLR,,0.00,886.0,WeatherDisplay:10.37,2013-05-14 18:49:00,
2013-05-14 13:54:00,85.4,59.0,29.74,West,273,15.0,15.0,41,0.00,CLR,,0.00,888.0,WeatherDisplay:10.37,2013-05-14 18:54:00,
2013-05-14 13:59:00,85.7,58.6,29.74,West,259,13.8,13.8,40,0.00,CLR,,0.00,877.0,WeatherDisplay:10.37,2013-05-14 18:59:00,
2013-05-14 14:04:00,86.0,58.9,29.74,SW,229,15.0,15.0,40,0.00,CLR,,0.00,874.0,WeatherDisplay:10.37,2013-05-14 19:04:00,
2013-05-14 14:09:00,86.2,59.0,29.74,WNW,290,16.1,16.1,40,0.00,CLR,,0.00,865.0,WeatherDisplay:10.37,2013-05-14 19:09:00,
2013-05-14 14:14:00,86.4,58.5,29.74,WSW,246,17.3,17.3,39,0.00,CLR,,0.00,858.0,WeatherDisplay:10.37,2013-05-14 19:14:00,
2013-05-14 14:19:00,86.5,57.9,29.74,West,275,12.7,12.7,38,0.00,CLR,,0.00,856.0,WeatherDisplay:10.37,2013-05-14 19:19:00,
2013-05-14 14:24:00,86.8,58.9,29.74,NW,307,11.5,11.5,39,0.00,CLR,,0.00,853.0,WeatherDisplay:10.37,2013-05-14 19:24:00,
2013-05-14 14:29:00,87.2,57.0,29.73,WSW,244,14.0,14.0,36,0.00,CLR,,0.00,846.0,WeatherDisplay:10.37,2013-05-14 19:29:00,
2013-05-14 14:34:00,87.3,59.3,29.73,West,272,9.2,9.2,39,0.00,CLR,,0.00,830.0,WeatherDisplay:10.37,2013-05-14 19:34:00,
2013-05-14 14:39:00,87.8,58.3,29.74,WSW,254,9.0,9.0,37,0.00,CLR,,0.00,814.0,WeatherDisplay:10.37,2013-05-14 19:39:00,
2013-05-14 14:44:00,88.2,58.6,29.73,NW,311,10.4,10.4,37,0.00,CLR,,0.00,814.0,WeatherDisplay:10.37,2013-05-14 19:44:00,
2013-05-14 14:49:00,88.2,58.6,29.73,WSW,241,8.1,8.1,37,0.00,CLR,,0.00,807.0,WeatherDisplay:10.37,2013-05-14 19:49:00,
2013-05-14 14:54:00,88.5,57.4,29.73,WSW,242,9.2,9.2,35,0.00,CLR,,0.00,807.0,WeatherDisplay:10.37,2013-05-14 19:54:00,
2013-05-14 14:59:00,88.4,57.3,29.73,West,263,11.5,11.5,35,0.00,CLR,,0.00,796.0,WeatherDisplay:10.37,2013-05-14 19:59:00,
2013-05-14 15:04:00,88.5,56.6,29.73,WSW,256,13.0,13.0,34,0.00,CLR,,0.00,784.0,WeatherDisplay:10.37,2013-05-14 20:04:00,
2013-05-14 15:09:00,88.8,56.8,29.73,WSW,242,10.0,10.0,34,0.00,CLR,,0.00,772.0,WeatherDisplay:10.37,2013-05-14 20:09:00,
2013-05-14 15:14:00,89.0,57.0,29.73,WNW,295,8.1,8.1,34,0.00,CLR,,0.00,758.0,WeatherDisplay:10.37,2013-05-14 20:14:00,
2013-05-14 15:19:00,89.3,58.1,29.73,WSW,241,7.0,7.0,35,0.00,CLR,,0.00,749.0,WeatherDisplay:10.37,2013-05-14 20:19:00,
2013-05-14 15:24:00,89.3,55.6,29.73,NW,311,8.0,8.0,32,0.00,CLR,,0.00,740.0,WeatherDisplay:10.37,2013-05-14 20:24:00,
2013-05-14 15:29:00,89.3,58.1,29.72,NW,321,11.0,11.0,35,0.00,CLR,,0.00,722.0,WeatherDisplay:10.37,2013-05-14 20:29:00,
2013-05-14 15:34:00,89.2,56.3,29.72,WNW,297,9.0,9.0,33,0.00,CLR,,0.00,715.0,WeatherDisplay:10.37,2013-05-14 20:34:00,
2013-05-14 15:39:00,89.3,55.6,29.72,SW,230,9.2,9.2,32,0.00,CLR,,0.00,700.0,WeatherDisplay:10.37,2013-05-14 20:39:00,
2013-05-14 15:44:00,89.5,54.9,29.72,WNW,284,11.5,11.5,31,0.00,CLR,,0.00,693.0,WeatherDisplay:10.37,2013-05-14 20:44:00,
2013-05-14 15:49:00,89.8,57.7,29.72,West,262,8.0,8.0,34,0.00,CLR,,0.00,682.0,WeatherDisplay:10.37,2013-05-14 20:49:00,
2013-05-14 15:54:00,89.9,55.2,29.72,WNW,286,5.8,5.8,31,0.00,CLR,,0.00,671.0,WeatherDisplay:10.37,2013-05-14 20:54:00,
2013-05-14 15:59:00,90.1,55.4,29.72,WNW,292,5.8,5.8,31,0.00,CLR,,0.00,649.0,WeatherDisplay:10.37,2013-05-14 20:59:00,
2013-05-14 16:04:00,90.3,55.6,29.72,WNW,288,6.9,6.9,31,0.00,CLR,,0.00,647.0,WeatherDisplay:10.37,2013-05-14 21:04:00,
2013-05-14 16:09:00,90.4,53.8,29.72,WSW,256,8.1,8.1,29,0.00,CLR,,0.00,633.0,WeatherDisplay:10.37,2013-05-14 21:09:00,
2013-05-14 16:14:00,90.6,55.8,29.72,WNW,292,8.0,8.0,31,0.00,CLR,,0.00,613.0,WeatherDisplay:10.37,2013-05-14 21:14:00,
2013-05-14 16:19:00,90.6,53.0,29.72,West,263,5.8,5.8,28,0.00,CLR,,0.00,603.0,WeatherDisplay:10.37,2013-05-14 21:19:00,
2013-05-14 16:24:00,90.7,53.1,29.72,SW,236,8.1,8.1,28,0.00,CLR,,0.00,585.0,WeatherDisplay:10.37,2013-05-14 21:24:00,
2013-05-14 16:29:00,90.8,52.2,29.72,NW,317,8.1,8.1,27,0.00,CLR,,0.00,573.0,WeatherDisplay:10.37,2013-05-14 21:29:00,
2013-05-14 16:34:00,90.7,54.1,29.72,NNW,329,7.0,7.0,29,0.00,CLR,,0.00,557.0,WeatherDisplay:10.37,2013-05-14 21:34:00,
2013-05-14 16:39:00,90.8,53.2,29.72,WNW,290,6.9,6.9,28,0.00,CLR,,0.00,543.0,WeatherDisplay:10.37,2013-05-14 21:39:00,
2013-05-14 16:45:00,91.0,52.4,29.72,NW,312,11.5,11.5,27,0.00,CLR,,0.00,527.0,WeatherDisplay:10.37,2013-05-14 21:45:00,
2013-05-14 16:50:00,91.0,53.4,29.72,WNW,302,6.9,6.9,28,0.00,CLR,,0.00,510.0,WeatherDisplay:10.37,2013-05-14 21:50:00,
2013-05-14 16:55:00,91.0,53.4,29.72,NW,311,10.4,10.4,28,0.00,CLR,,0.00,497.0,WeatherDisplay:10.37,2013-05-14 21:55:00,
2013-05-14 17:00:00,90.6,54.9,29.72,NW,311,5.8,5.8,30,0.00,CLR,,0.00,482.0,WeatherDisplay:10.37,2013-05-14 22:00:00,
2013-05-14 17:05:00,90.8,53.2,29.72,WNW,287,5.8,5.8,28,0.00,CLR,,0.00,466.0,WeatherDisplay:10.37,2013-05-14 22:05:00,
2013-05-14 17:10:00,90.9,54.2,29.72,WNW,292,3.5,3.5,29,0.00,CLR,,0.00,452.0,WeatherDisplay:10.37,2013-05-14 22:10:00,
2013-05-14 17:15:00,90.8,54.2,29.71,NW,326,5.8,5.8,29,0.00,CLR,,0.00,434.0,WeatherDisplay:10.37,2013-05-14 22:15:00,
2013-05-14 17:20:00,90.6,52.0,29.71,NW,326,6.9,6.9,27,0.00,CLR,,0.00,422.0,WeatherDisplay:10.37,2013-05-14 22:20:00,
2013-05-14 17:25:00,91.0,49.2,29.71,WNW,300,4.6,4.6,24,0.00,CLR,,0.00,406.0,WeatherDisplay:10.37,2013-05-14 22:25:00,
2013-05-14 17:30:00,91.4,50.6,29.71,WNW,288,6.0,6.0,25,0.00,CLR,,0.00,388.0,WeatherDisplay:10.37,2013-05-14 22:30:00,
2013-05-14 17:35:00,91.3,52.6,29.70,West,276,4.6,4.6,27,0.00,CLR,,0.00,371.0,WeatherDisplay:10.37,2013-05-14 22:35:00,
2013-05-14 17:40:00,91.6,50.8,29.70,West,262,2.3,2.3,25,0.00,CLR,,0.00,360.0,WeatherDisplay:10.37,2013-05-14 22:40:00,
2013-05-14 17:45:00,91.9,51.1,29.70,NW,306,4.6,4.6,25,0.00,CLR,,0.00,339.0,WeatherDisplay:10.37,2013-05-14 22:45:00,
2013-05-14 17:50:00,92.1,52.3,29.70,NW,306,2.0,2.0,26,0.00,CLR,,0.00,322.0,WeatherDisplay:10.37,2013-05-14 22:50:00,
2013-05-14 17:55:00,92.2,51.3,29.70,NW,306,3.5,3.5,25,0.00,CLR,,0.00,306.0,WeatherDisplay:10.37,2013-05-14 22:55:00,
2013-05-14 18:00:00,92.2,52.4,29.69,NW,306,1.0,1.0,26,0.00,CLR,,0.00,294.0,WeatherDisplay:10.37,2013-05-14 23:00:00,
2013-05-14 18:05:00,92.4,51.5,29.69,NW,306,1.0,1.0,25,0.00,CLR,,0.00,276.0,WeatherDisplay:10.37,2013-05-14 23:05:00,
2013-05-14 18:10:00,92.4,50.4,29.69,SW,234,0.0,0.0,24,0.00,CLR,,0.00,258.0,WeatherDisplay:10.37,2013-05-14 23:10:00,
2013-05-14 18:15:00,92.8,52.9,29.69,SW,236,3.0,3.0,26,0.00,CLR,,0.00,248.0,WeatherDisplay:10.37,2013-05-14 23:15:00,
2013-05-14 18:20:00,92.2,54.4,29.68,SW,214,3.5,3.5,28,0.00,CLR,,0.00,232.0,WeatherDisplay:10.37,2013-05-14 23:20:00,
2013-05-14 18:25:00,91.7,54.9,29.68,WSW,248,4.0,4.0,29,0.00,CLR,,0.00,214.0,WeatherDisplay:10.37,2013-05-14 23:25:00,
2013-05-14 18:30:00,91.2,54.5,29.68,WSW,242,2.3,2.3,29,0.00,CLR,,0.00,197.0,WeatherDisplay:10.37,2013-05-14 23:30:00,
2013-05-14 18:35:00,90.9,56.1,29.68,WSW,242,2.3,2.3,31,0.00,CLR,,0.00,178.0,WeatherDisplay:10.37,2013-05-14 23:35:00,
2013-05-14 18:40:00,90.4,51.9,29.68,SSW,198,4.6,4.6,27,0.00,CLR,,0.00,158.0,WeatherDisplay:10.37,2013-05-14 23:40:00,
2013-05-14 18:45:00,90.1,53.6,29.68,SSW,196,3.5,3.5,29,0.00,CLR,,0.00,139.0,WeatherDisplay:10.37,2013-05-14 23:45:00,
2013-05-14 18:50:00,89.5,54.9,29.67,SSE,165,3.5,3.5,31,0.00,CLR,,0.00,121.0,WeatherDisplay:10.37,2013-05-14 23:50:00,
2013-05-14 18:55:00,88.6,52.3,29.67,SSW,199,9.0,9.0,29,0.00,CLR,,0.00,105.0,WeatherDisplay:10.37,2013-05-14 23:55:00,
2013-05-14 19:00:00,88.5,53.1,29.67,SSW,212,10.4,10.4,30,0.00,CLR,,0.00,39.0,WeatherDisplay:10.37,2013-05-15 00:00:00,
2013-05-14 19:05:00,88.4,53.0,29.67,SW,214,6.9,6.9,30,0.00,CLR,,0.00,35.0,WeatherDisplay:10.37,2013-05-15 00:05:00,
2013-05-14 19:10:00,88.1,54.5,29.67,SSW,193,6.9,6.9,32,0.00,CLR,,0.00,32.0,WeatherDisplay:10.37,2013-05-15 00:10:00,
2013-05-14 19:15:00,87.8,53.4,29.67,SSW,204,11.5,11.5,31,0.00,CLR,,0.00,26.0,WeatherDisplay:10.37,2013-05-15 00:15:00,
2013-05-14 19:20:00,87.4,53.9,29.67,SW,215,8.1,8.1,32,0.00,CLR,,0.00,23.0,WeatherDisplay:10.37,2013-05-15 00:20:00,
2013-05-14 19:25:00,87.0,53.6,29.66,SSW,192,5.8,5.8,32,0.00,CLR,,0.00,23.0,WeatherDisplay:10.37,2013-05-15 00:25:00,
2013-05-14 19:30:00,86.6,54.9,29.66,SSW,206,4.0,4.4,34,0.00,CLR,,0.00,19.0,WeatherDisplay:10.37,2013-05-15 00:30:00,
2013-05-14 19:35:00,86.2,52.9,29.66,SSW,197,9.2,9.2,32,0.00,CLR,,0.00,12.0,WeatherDisplay:10.37,2013-05-15 00:35:00,
2013-05-14 19:40:00,86.0,53.5,29.67,SSW,210,10.4,10.4,33,0.00,CLR,,0.00,12.0,WeatherDisplay:10.37,2013-05-15 00:40:00,
2013-05-14 19:45:00,85.7,54.1,29.66,SW,218,9.0,9.0,34,0.00,CLR,,0.00,11.0,WeatherDisplay:10.37,2013-05-15 00:45:00,
2013-05-14 19:50:00,85.2,55.2,29.67,SW,227,9.2,9.2,36,0.00,CLR,,0.00,9.0,WeatherDisplay:10.37,2013-05-15 00:50:00,
2013-05-14 19:55:00,85.0,56.5,29.67,SSW,193,11.5,11.5,38,0.00,CLR,,0.00,5.0,WeatherDisplay:10.37,2013-05-15 00:55:00,
2013-05-14 20:00:00,84.9,57.2,29.67,SW,215,15.0,15.0,39,0.00,CLR,,0.00,0.0,WeatherDisplay:10.37,2013-05-15 01:00:00,
2013-05-14 20:05:00,84.5,57.5,29.67,South,190,11.5,11.5,40,0.00,CLR,,0.00,0.0,WeatherDisplay:10.37,2013-05-15 01:05:00,
2013-05-14 20:10:00,84.1,58.5,29.66,SW,222,16.1,16.1,42,0.00,CLR,,0.00,0.0,WeatherDisplay:10.37,2013-05-15 01:10:00,
2013-05-14 20:15:00,83.8,58.9,29.66,SW,221,11.5,11.5,43,0.00,CLR,,0.00,0.0,WeatherDisplay:10.37,2013-05-15 01:15:00,
2013-05-14 20:20:00,83.5,59.9,29.66,SW,219,13.8,13.8,45,0.00,CLR,,0.00,0.0,WeatherDisplay:10.37,2013-05-15 01:20:00,
2013-05-14 20:25:00,83.3,60.4,29.67,SSW,198,16.1,16.1,46,0.00,CLR,,0.00,0.0,WeatherDisplay:10.37,2013-05-15 01:25:00,
2013-05-14 20:30:00,83.3,60.4,29.66,SSW,206,19.6,19.6,46,0.00,CLR,,0.00,0.0,WeatherDisplay:10.37,2013-05-15 01:30:00,
2013-05-14 20:35:00,83.3,60.4,29.67,SSW,209,18.0,18.0,46,0.00,CLR,,0.00,0.0,WeatherDisplay:10.37,2013-05-15 01:35:00,
2013-05-14 20:40:00,83.2,60.3,29.67,SSW,209,18.4,18.4,46,0.00,CLR,,0.00,0.0,WeatherDisplay:10.37,2013-05-15 01:40:00,
2013-05-14 20:45:00,83.0,60.7,29.67,SSW,202,18.4,18.4,47,0.00,CLR,,0.00,0.0,WeatherDisplay:10.37,2013-05-15 01:45:00,
2013-05-14 20:50:00,82.7,60.4,29.67,SSW,212,16.0,16.0,47,0.00,CLR,,0.00,0.0,WeatherDisplay:10.37,2013-05-15 01:50:00,
2013-05-14 20:55:00,82.5,60.2,29.68,SW,223,18.4,18.4,47,0.00,CLR,,0.00,0.0,WeatherDisplay:10.37,2013-05-15 01:55:00,
2013-05-14 21:00:00,82.3,60.1,29.68,South,181,18.4,18.4,47,0.00,CLR,,0.00,0.0,WeatherDisplay:10.37,2013-05-15 02:00:00,
2013-05-14 21:05:00,82.1,60.5,29.68,SW,223,14.0,14.0,48,0.00,CLR,,0.00,0.0,WeatherDisplay:10.37,2013-05-15 02:05:00,
2013-05-14 21:10:00,81.9,60.3,29.68,SW,216,12.7,12.7,48,0.00,CLR,,0.00,0.0,WeatherDisplay:10.37,2013-05-15 02:10:00,
2013-05-14 21:15:00,81.5,60.5,29.68,SSW,205,17.3,17.3,49,0.00,CLR,,0.00,0.0,WeatherDisplay:10.37,2013-05-15 02:15:00,
2013-05-14 21:20:00,81.2,60.2,29.68,SW,217,13.8,13.8,49,0.00,CLR,,0.00,0.0,WeatherDisplay:10.37,2013-05-15 02:20:00,
2013-05-14 21:25:00,81.0,60.0,29.68,SSW,198,14.0,14.0,49,0.00,CLR,,0.00,0.0,WeatherDisplay:10.37,2013-05-15 02:25:00,
2013-05-14 21:30:00,80.9,59.9,29.69,SSW,202,12.7,12.7,49,0.00,CLR,,0.00,0.0,WeatherDisplay:10.37,2013-05-15 02:30:00,
2013-05-14 21:35:00,80.7,59.8,29.68,SW,227,12.7,12.7,49,0.00,CLR,,0.00,0.0,WeatherDisplay:10.37,2013-05-15 02:35:00,
2013-05-14 21:40:00,80.7,59.8,29.68,SSW,204,13.8,13.8,49,0.00,CLR,,0.00,0.0,WeatherDisplay:10.37,2013-05-15 02:40:00,
2013-05-14 21:45:00,80.6,59.7,29.69,SSW,211,16.1,16.1,49,0.00,CLR,,0.00,0.0,WeatherDisplay:10.37,2013-05-15 02:45:00,
2013-05-14 21:50:00,80.6,59.7,29.69,SSW,202,13.8,13.8,49,0.00,CLR,,0.00,0.0,WeatherDisplay:10.37,2013-05-15 02:50:00,
2013-05-14 21:55:00,80.5,59.6,29.69,SSW,198,17.3,17.3,49,0.00,CLR,,0.00,0.0,WeatherDisplay:10.37,2013-05-15 02:55:00,
2013-05-14 22:00:00,80.5,59.6,29.69,SW,222,13.8,13.8,49,0.00,CLR,,0.00,0.0,WeatherDisplay:10.37,2013-05-15 03:00:00,
2013-05-14 22:05:00,80.3,59.4,29.69,South,186,14.0,14.0,49,0.00,CLR,,0.00,0.0,WeatherDisplay:10.37,2013-05-15 03:05:00,
2013-05-14 22:10:00,80.3,59.4,29.69,SSW,200,15.0,15.0,49,0.00,CLR,,0.00,0.0,WeatherDisplay:10.37,2013-05-15 03:10:00,
2013-05-14 22:15:00,80.1,59.2,29.69,South,182,11.5,11.5,49,0.00,CLR,,0.00,0.0,WeatherDisplay:10.37,2013-05-15 03:15:00,
2013-05-14 22:20:00,79.9,59.0,29.69,SSW,204,12.0,12.0,49,0.00,CLR,,0.00,0.0,WeatherDisplay:10.37,2013-05-15 03:20:00,
2013-05-14 22:25:00,79.7,58.8,29.69,SSW,207,15.0,15.0,49,0.00,CLR,,0.00,0.0,WeatherDisplay:10.37,2013-05-15 03:25:00,
2013-05-14 22:30:00,79.4,58.6,29.69,South,177,12.7,12.7,49,0.00,CLR,,0.00,0.0,WeatherDisplay:10.37,2013-05-15 03:30:00,
2013-05-14 22:35:00,78.9,58.7,29.69,SSE,168,16.1,16.1,50,0.00,CLR,,0.00,0.0,WeatherDisplay:10.37,2013-05-15 03:35:00,
2013-05-14 22:40:00,78.5,58.9,29.69,SW,220,16.1,16.1,51,0.00,CLR,,0.00,0.0,WeatherDisplay:10.37,2013-05-15 03:40:00,
2013-05-14 22:45:00,78.0,58.9,29.69,SW,214,11.5,11.5,52,0.00,CLR,,0.00,0.0,WeatherDisplay:10.37,2013-05-15 03:45:00,
2013-05-14 22:50:00,77.7,58.7,29.68,SW,217,12.7,12.7,52,0.00,CLR,,0.00,0.0,WeatherDisplay:10.37,2013-05-15 03:50:00,
2013-05-14 22:55:00,77.5,58.5,29.69,South,185,13.8,13.8,52,0.00,CLR,,0.00,0.0,WeatherDisplay:10.37,2013-05-15 03:55:00,
2013-05-14 23:00:00,77.2,58.7,29.68,SSW,197,16.1,16.1,53,0.00,CLR,,0.00,0.0,WeatherDisplay:10.37,2013-05-15 04:00:00,
2013-05-14 23:01:00,77.2,58.7,29.68,South,181,16.1,16.1,53,0.00,CLR,,0.00,0.0,WeatherDisplay:10.37,2013-05-15 04:01:00,
2013-05-14 23:06:00,76.8,58.9,29.68,SSW,209,10.0,10.0,54,0.00,CLR,,0.00,0.0,WeatherDisplay:10.37,2013-05-15 04:06:00,
2013-05-14 23:11:00,76.5,58.6,29.68,SSW,207,11.5,11.5,54,0.00,CLR,,0.00,0.0,WeatherDisplay:10.37,2013-05-15 04:11:00,
2013-05-14 23:16:00,76.3,58.4,29.69,SSW,209,10.4,10.4,54,0.00,CLR,,0.00,0.0,WeatherDisplay:10.37,2013-05-15 04:16:00,
2013-05-14 23:21:00,76.1,58.8,29.69,SSW,213,8.1,8.1,55,0.00,CLR,,0.00,0.0,WeatherDisplay:10.37,2013-05-15 04:21:00,
2013-05-14 23:26:00,75.9,58.6,29.70,SW,215,6.9,6.9,55,0.00,CLR,,0.00,0.0,WeatherDisplay:10.37,2013-05-15 04:26:00,
2013-05-14 23:31:00,75.7,58.9,29.70,SSW,211,5.0,5.0,56,0.00,CLR,,0.00,0.0,WeatherDisplay:10.37,2013-05-15 04:31:00,
2013-05-14 23:36:00,75.5,58.7,29.70,South,188,4.6,4.6,56,0.00,CLR,,0.00,0.0,WeatherDisplay:10.37,2013-05-15 04:36:00,
2013-05-14 23:41:00,75.3,58.5,29.70,SSW,197,6.9,6.9,56,0.00,CLR,,0.00,0.0,WeatherDisplay:10.37,2013-05-15 04:41:00,
2013-05-14 23:46:00,75.3,58.5,29.70,SSW,200,13.8,13.8,56,0.00,CLR,,0.00,0.0,WeatherDisplay:10.37,2013-05-15 04:46:00,
2013-05-14 23:51:00,75.2,58.9,29.70,South,186,5.8,5.8,57,0.00,CLR,,0.00,0.0,WeatherDisplay:10.37,2013-05-15 04:51:00,
2013-05-14 23:56:00,74.9,58.6,29.69,SSW,200,4.0,4.0,57,0.00,CLR,,0.00,0.0,WeatherDisplay:10.37,2013-05-15 04:56:00,